2022-09-01 00:00:51 r, 21.82m,0000000000Hz,0002806555c,0000006.091s, 031.2C,00002191
2022-09-01 00:10:51 r, 21.77m,0000000000Hz,0002700479c,0000005.860s, 031.2C,00002191
2022-09-01 00:20:50 r, 21.82m,0000000000Hz,0002809440c,0000006.097s, 031.2C,00002191
2022-09-01 00:30:51 r, 21.82m,0000000000Hz,0002817818c,0000006.115s, 031.5C,00002191
2022-09-01 00:40:51 r, 21.90m,0000000000Hz,0003026098c,0000006.567s, 031.5C,00002191
2022-09-01 00:50:50 r, 21.92m,0000000001Hz,0003079171c,0000006.682s, 031.2C,00002191
2022-09-01 01:00:51 r, 21.91m,0000000000Hz,0003044102c,0000006.606s, 031.2C,00002191
2022-09-01 01:10:52 r, 21.80m,0000000000Hz,0002761348c,0000005.993s, 031.2C,00002191
2022-09-01 01:20:50 r, 21.83m,0000000000Hz,0002828044c,0000006.137s, 031.2C,00002191
2022-09-01 01:30:52 r, 21.75m,0000000001Hz,0002650127c,0000005.751s, 031.2C,00002191
2022-09-01 01:40:51 r, 21.81m,0000000000Hz,0002795756c,0000006.067s, 031.2C,00002191
2022-09-01 01:50:50 r, 21.84m,0000000000Hz,0002875992c,0000006.241s, 031.2C,00002191
2022-09-01 02:00:52 r, 21.87m,0000000001Hz,0002967009c,0000006.439s, 030.9C,00002191
2022-09-01 02:10:51 r, 21.74m,0000000000Hz,0002637153c,0000005.723s, 030.6C,00002191
2022-09-01 02:20:50 r, 21.80m,0000000001Hz,0002788217c,0000006.051s, 030.2C,00002191
2022-09-01 02:30:51 r, 21.80m,0000000001Hz,0002799031c,0000006.074s, 030.2C,00002191
2022-09-01 02:40:51 r, 21.80m,0000000000Hz,0002772338c,0000006.016s, 029.9C,00002191
2022-09-01 02:50:50 r, 21.81m,0000000000Hz,0002802371c,0000006.082s, 029.6C,00002191
2022-09-01 03:00:52 r, 21.94m,0000000000Hz,0003151274c,0000006.839s, 029.6C,00002191
2022-09-01 03:10:51 r, 21.89m,0000000000Hz,0003026294c,0000006.567s, 029.3C,00002191
2022-09-01 03:20:50 r, 21.94m,0000000000Hz,0003130603c,0000006.794s, 029.3C,00002191
2022-09-01 03:30:53 r, 21.98m,0000000000Hz,0003269633c,0000007.096s, 029.0C,00002191
2022-09-01 03:40:51 r, 21.99m,0000000001Hz,0003284056c,0000007.127s, 029.0C,00002191
2022-09-01 03:50:50 r, 21.97m,0000000000Hz,0003233767c,0000007.018s, 028.6C,00002191
2022-09-01 04:00:53 r, 21.98m,0000000000Hz,0003244080c,0000007.040s, 028.6C,00002191
2022-09-01 04:10:51 r, 21.95m,0000000000Hz,0003191051c,0000006.925s, 028.6C,00002191
2022-09-01 04:20:50 r, 21.99m,0000000001Hz,0003298795c,0000007.159s, 028.6C,00002191
2022-09-01 04:30:51 r, 21.99m,0000000000Hz,0003298367c,0000007.158s, 028.3C,00002191
2022-09-01 04:40:52 r, 21.97m,0000000000Hz,0003228374c,0000007.006s, 028.3C,00002191
2022-09-01 04:50:50 r, 21.95m,0000000000Hz,0003169911c,0000006.879s, 028.3C,00002191
2022-09-01 05:00:51 r, 21.86m,0000000001Hz,0002916787c,0000006.330s, 028.0C,00002191
2022-09-01 05:10:51 r, 21.78m,0000000000Hz,0002742244c,0000005.951s, 028.0C,00002191
2022-09-01 05:20:50 r, 21.45m,0000000000Hz,0002019515c,0000004.383s, 028.0C,00002191
2022-09-01 05:30:51 r, 20.64m,0000000001Hz,0000978381c,0000002.123s, 028.0C,00002191
2022-09-01 05:40:53 r, 19.36m,0000000001Hz,0000305110c,0000000.662s, 028.0C,00002191
2022-09-01 05:50:50 r, 17.86m,0000000006Hz,0000076588c,0000000.166s, 027.7C,00002191
2022-09-01 06:00:50 r, 16.17m,0000000028Hz,0000016162c,0000000.035s, 027.7C,00002191
2022-09-01 06:10:51 r, 14.23m,0000000172Hz,0000000000c,0000000.000s, 027.3C,00002191
2022-09-01 06:20:50 r, 12.19m,0000001126Hz,0000000000c,0000000.000s, 027.3C,00002191
2022-09-01 06:30:53 r, 10.41m,0000005816Hz,0000000000c,0000000.000s, 027.0C,00002191
2022-09-01 06:40:51 r, 09.10m,0000019453Hz,0000000000c,0000000.000s, 027.0C,00002191
2022-09-01 06:50:50 r, 08.14m,0000046939Hz,0000000000c,0000000.000s, 027.3C,00002191
2022-09-01 07:00:51 r, 07.42m,0000091020Hz,0000000000c,0000000.000s, 027.3C,00002191
2022-09-01 07:10:51 r, 06.63m,0000187893Hz,0000000000c,0000000.000s, 027.7C,00002191
2022-09-01 07:20:50 r, 06.32m,0000250107Hz,0000000000c,0000000.000s, 028.3C,00002191
2022-09-01 07:30:52 r, 06.08m,0000312782Hz,0000000000c,0000000.000s, 029.0C,00002191
2022-09-01 07:40:51 r, 05.84m,0000388789Hz,0000000000c,0000000.000s, 029.9C,00002191
2022-09-01 07:50:50 r, 00.00m,0000441717Hz,0000000000c,0000000.000s, 030.6C,00002191
2022-09-01 08:00:53 r, 00.00m,0000484486Hz,0000000000c,0000000.000s, 031.2C,00002191
2022-09-01 08:10:51 r, 00.00m,0000551352Hz,0000000000c,0000000.000s, 031.9C,00002191
2022-09-01 08:20:50 r, 00.00m,0000537747Hz,0000000000c,0000000.000s, 032.2C,00002191
2022-09-01 08:30:53 r, 00.00m,0000514523Hz,0000000000c,0000000.000s, 032.5C,00002191
2022-09-01 08:40:51 r, 00.00m,0000596026Hz,0000000000c,0000000.000s, 032.8C,00002191
2022-09-01 08:50:50 r, 00.00m,0000595884Hz,0000000000c,0000000.000s, 034.1C,00002191
2022-09-01 09:00:51 r, 00.00m,0000595714Hz,0000000000c,0000000.000s, 035.4C,00002191
2022-09-01 09:10:52 r, 00.00m,0000595588Hz,0000000000c,0000000.000s, 036.7C,00002191
2022-09-01 09:20:50 r, 00.00m,0000595536Hz,0000000000c,0000000.000s, 037.0C,00002191
2022-09-01 09:30:50 r, 00.00m,0000595660Hz,0000000000c,0000000.000s, 037.0C,00002191
2022-09-01 09:40:53 r, 00.00m,0000595500Hz,0000000000c,0000000.000s, 037.0C,00002191
2022-09-01 09:50:50 r, 00.00m,0000595470Hz,0000000000c,0000000.000s, 037.0C,00002191
2022-09-01 10:00:50 r, 00.00m,0000595491Hz,0000000000c,0000000.000s, 037.3C,00002191
2022-09-01 10:10:53 r, 00.00m,0000595653Hz,0000000000c,0000000.000s, 037.7C,00002191
2022-09-01 10:20:50 r, 00.00m,0000595537Hz,0000000000c,0000000.000s, 037.3C,00002191
2022-09-01 10:30:50 r, 00.00m,0000595544Hz,0000000000c,0000000.000s, 037.7C,00002191
2022-09-01 10:40:51 r, 00.00m,0000595495Hz,0000000000c,0000000.000s, 038.0C,00002191
2022-09-01 10:50:50 r, 00.00m,0000595346Hz,0000000000c,0000000.000s, 038.6C,00002191
2022-09-01 11:00:51 r, 00.00m,0000595362Hz,0000000000c,0000000.000s, 039.0C,00002191
2022-09-01 11:10:52 r, 00.00m,0000595226Hz,0000000000c,0000000.000s, 039.6C,00002191
2022-09-01 11:20:50 r, 00.00m,0000595281Hz,0000000000c,0000000.000s, 039.9C,00002191
2022-09-01 11:30:52 r, 00.00m,0000595252Hz,0000000000c,0000000.000s, 039.9C,00002191
2022-09-01 11:40:51 r, 00.00m,0000595353Hz,0000000000c,0000000.000s, 039.6C,00002191
2022-09-01 11:50:50 r, 00.00m,0000589808Hz,0000000000c,0000000.000s, 039.3C,00002191
2022-09-01 12:00:51 r, 00.00m,0000569242Hz,0000000000c,0000000.000s, 039.6C,00002191
2022-09-01 12:10:53 r, 00.00m,0000591136Hz,0000000000c,0000000.000s, 039.9C,00002191
2022-09-01 12:20:50 r, 00.00m,0000594031Hz,0000000000c,0000000.000s, 040.2C,00002191
2022-09-01 12:30:50 r, 00.00m,0000559136Hz,0000000000c,0000000.000s, 040.2C,00002191
2022-09-01 12:40:51 r, 00.00m,0000585756Hz,0000000000c,0000000.000s, 040.6C,00002191
2022-09-01 12:50:50 r, 00.00m,0000506898Hz,0000000000c,0000000.000s, 040.9C,00002191
2022-09-01 13:00:53 r, 00.00m,0000559700Hz,0000000000c,0000000.000s, 041.5C,00002191
2022-09-01 13:10:51 r, 00.00m,0000595179Hz,0000000000c,0000000.000s, 041.9C,00002191
2022-09-01 13:20:50 r, 00.00m,0000595086Hz,0000000000c,0000000.000s, 042.2C,00002191
2022-09-01 13:30:50 r, 00.00m,0000594986Hz,0000000000c,0000000.000s, 042.8C,00002191
2022-09-01 13:40:51 r, 00.00m,0000594905Hz,0000000000c,0000000.000s, 043.1C,00002191
2022-09-01 13:50:50 r, 00.00m,0000594864Hz,0000000000c,0000000.000s, 043.5C,00002191
2022-09-01 14:00:50 r, 00.00m,0000594763Hz,0000000000c,0000000.000s, 043.5C,00002191
2022-09-01 14:10:53 r, 00.00m,0000594523Hz,0000000000c,0000000.000s, 045.4C,00002191
2022-09-01 14:20:50 r, 00.00m,0000594360Hz,0000000000c,0000000.000s, 046.0C,00002191
2022-09-01 14:30:50 r, 00.00m,0000594369Hz,0000000000c,0000000.000s, 046.7C,00002191
2022-09-01 14:40:51 r, 00.00m,0000593964Hz,0000000000c,0000000.000s, 048.0C,00002191
2022-09-01 14:50:50 r, 00.00m,0000593471Hz,0000000000c,0000000.000s, 051.2C,00002191
2022-09-01 15:00:50 r, 00.00m,0000593335Hz,0000000000c,0000000.000s, 052.5C,00002191
2022-09-01 15:10:51 r, 00.00m,0000593176Hz,0000000000c,0000000.000s, 053.1C,00002191
2022-09-01 15:20:50 r, 00.00m,0000593071Hz,0000000000c,0000000.000s, 053.5C,00002191
2022-09-01 15:30:50 r, 00.00m,0000593041Hz,0000000000c,0000000.000s, 054.1C,00002191
2022-09-01 15:40:52 r, 00.00m,0000593247Hz,0000000000c,0000000.000s, 052.8C,00002191
2022-09-01 15:50:50 r, 00.00m,0000593222Hz,0000000000c,0000000.000s, 052.8C,00002191
